#timestamp,LO_Frequency,Hit,StdDev 
1653051615.9,286047001.1,N
1653051635.7,286047000.2,N
1653051655.6,286046999.9,N
1653051675.4,286046999.9,N
1653051695.2,286047002.3,N
1653051715.1,286047002.4,N
1653051716.0,286047002.4,N
1653051735.8,286047000.1,N
1653051755.6,286047002.8,N
1653051775.5,286047002.4,N
1653051795.3,286046999.8,N
1653051815.2,286046999.9,N
1653051835.9,286047000.3,N
1653051855.7,286047000.5,N
1653051875.6,286047000.5,N
1653051895.4,286047000.2,N
1653051915.2,286047000.0,N
1653051935.1,286047001.2,N
1653051936.0,286047001.2,N
1653051955.8,286047001.0,N
1653051975.7,286047000.9,N
1653051995.5,286047000.6,N
1653052015.3,286046998.8,N
1653052035.2,286046999.4,N
1653052055.0,286046999.4,N
1653052055.9,286046999.4,N
1653052075.8,286046999.0,N
1653052095.6,286046998.4,N
1653052115.4,286046998.5,N
1653052135.3,286047001.0,N
1653052155.1,286047000.4,N
1653052175.8,286047000.4,N
1653052195.7,286046999.7,N
1653052215.5,286047000.3,N
1653052235.4,286047000.9,N
1653052255.2,286046999.8,N
1653052275.0,286047002.0,N
1653052275.9,286047002.0,N
1653052295.8,286047002.1,N
1653052315.6,286047002.2,N
1653052335.4,286046999.8,N
1653052355.3,286046999.7,N
1653052375.1,286046999.7,N
1653052395.9,286047000.4,N
1653052415.7,286047001.0,N
1653052435.5,286046999.9,N
1653052455.4,286047001.0,N
1653052475.2,286047001.2,N
1653052495.0,286047000.8,N
1653052495.9,286047000.8,N
1653052515.8,286047000.4,N
1653052535.6,286047000.5,N
1653052555.5,286047002.4,N
1653052575.3,286047002.0,N
1653052595.1,286047002.5,N
1653052615.9,286046999.7,N
1653052635.7,286047002.2,N
1653052655.6,286047000.4,N
1653052675.4,286047000.6,N
1653052695.2,286047001.1,N
1653052715.1,286047000.9,N
1653052716.0,286047000.9,N
1653052735.8,286047000.0,N
1653052755.6,286047000.7,N
1653052775.5,286046999.0,N
1653052795.3,286046998.7,N
1653052815.2,286046998.9,N
1653052835.9,286046998.9,N
1653052855.7,286046998.8,N
1653052875.6,286046997.1,N
1653052895.4,286046997.8,N
1653052915.3,286046997.6,N
1653052935.1,286046997.5,N
1653052936.0,286046997.5,N
1653052955.8,286046994.9,Y
1653052975.7,286046995.7,P
1653052995.5,286046997.7,N
1653053015.3,286046997.1,N
1653053035.2,286046999.3,N
1653053055.0,286046999.6,N
1653053055.9,286046999.6,N
1653053075.8,286046999.5,N
1653053095.6,286046996.6,N
1653053115.4,286046999.4,N
1653053135.3,286046997.3,N
1653053155.1,286046996.9,N
1653053175.8,286046997.7,N
1653053195.7,286046997.7,N
1653053215.5,286046997.8,N
1653053235.4,286046997.1,N
1653053255.2,286046999.1,N
1653053275.0,286046996.7,N
1653053275.9,286046996.7,N
1653053295.8,286046996.7,N
1653053315.6,286046997.0,N
1653053335.4,286046997.3,N
1653053355.3,286046997.1,N
1653053375.1,286046997.0,N
1653053395.9,286046999.6,N
1653053415.7,286046998.7,N
1653053435.5,286046997.2,N
1653053455.4,286046997.7,N
1653053475.2,286046997.9,N
1653053495.1,286046997.9,N
1653053496.0,286046997.9,N
1653053515.8,286046997.9,N
1653053535.6,286046996.6,Y
1653053555.5,286046998.1,P
1653053575.3,286047001.1,P
1653053595.2,286047001.2,N
1653053615.9,286046998.4,N
1653053635.7,286046999.1,N
1653053655.6,286046996.9,N
1653053675.4,286046999.0,N
1653053695.3,286046998.6,N
1653053715.1,286046998.4,N
1653053735.8,286046998.2,N
1653053755.7,286046998.9,N
1653053775.5,286046996.6,N
1653053795.3,286046996.9,N
1653053815.2,286046999.2,N
1653053835.0,286046999.6,N
1653053835.9,286046999.6,N
1653053855.8,286046998.3,N
1653053875.6,286046996.8,N
1653053895.4,286046999.4,N
1653053915.3,286046997.1,N
1653053935.1,286046996.6,N
1653053955.9,286046999.6,N
1653053975.7,286046997.2,N
1653053995.5,286046996.7,N
1653054015.4,286046997.6,N
1653054035.2,286046998.0,N
1653054055.1,286046994.9,Y
1653054056.0,286046994.9,P
1653054075.8,286046996.5,N
1653054095.6,286046996.5,N
1653054115.5,286046999.6,N
1653054135.3,286046997.1,N
1653054155.2,286046996.6,N
1653054175.9,286046999.5,N
1653054195.7,286046997.2,N
1653054215.6,286046997.0,N
1653054235.4,286046996.7,N
1653054255.3,286046997.2,N
1653054275.1,286046996.7,N
1653054276.0,286046996.7,N
1653054295.8,286046996.5,N
1653054315.7,286046999.2,N
1653054335.5,286046996.7,N
1653054355.4,286046997.1,N
1653054375.2,286046997.0,N
1653054395.0,286046998.0,N
1653054395.9,286046998.0,N
1653054415.8,286046996.0,Y
1653054435.6,286046998.3,P
1653054455.5,286046998.1,P
1653054475.3,286047000.6,N
1653054495.1,286047000.1,N
1653054515.9,286047000.1,N
1653054535.7,286047000.3,N
1653054555.5,286047000.2,N
1653054575.4,286047000.5,N
1653054595.2,286047000.6,N
1653054615.1,286047001.2,N
1653054616.0,286047001.2,N
1653054635.8,286046998.1,N
1653054655.6,286046998.1,N
1653054675.5,286046998.2,N
1653054695.3,286046998.3,N
1653054715.1,286047001.2,N
1653054735.9,286047001.2,N
1653054755.7,286047000.9,N
1653054775.6,286047000.0,N
1653054795.4,286047000.0,N
1653054815.2,286047000.3,N
1653054835.1,286046998.1,N
1653054836.0,286046998.1,N
1653054855.8,286046998.4,N
1653054875.7,286046999.0,N
1653054895.5,286046998.6,N
1653054915.3,286047001.1,N
1653054935.2,286046999.0,N
1653054955.9,286046998.6,N
1653054975.7,286046998.4,N
1653054995.6,286047000.7,N
1653055015.4,286047001.1,N
1653055035.3,286047000.8,N
1653055055.1,286047000.7,N
1653055075.8,286047001.0,N
1653055095.7,286047000.4,N
1653055115.5,286046998.4,N
1653055135.4,286046998.3,N
1653055155.2,286046998.3,N
1653055175.0,286046999.6,N
1653055175.9,286046999.6,N
1653055195.8,286046996.5,Y
